User: anonymous   Login
Location: Eastlake (historical)
(39.0077°N, 122.6678°W)
Time: 11:16:51
(UTC+00:00)
Language:

SJ-12 - Orbit

View from above orbital plane
View from above orbital plane
View from above satellite
View from above satellite

Ground track
Ground track

The orbit data is extracted from the following two-line orbital elements,

1 36596U 10027A   21063.95102766 -.00000078  00000-0 -17260-5 0  9995
2 36596  97.6788  53.7988 0012096 158.5430 201.6301 14.96901349584758
Epoch (UTC): 04 March 2021 22:49:28
Eccentricity: 0.0012096
inclination: 97.6788°
perigee height: 568 km
apogee height: 585 km
right ascension of ascending node: 53.7988°
argument of perigee: 158.5430°
revolutions per day: 14.96901349
mean anomaly at epoch: 201.6301°
orbit number at epoch: 58475

The dashed part of the orbit path shows where the satellite is in the earth's shadow,  

DLR